DMSP 5D-2 F13 DEB, 40577

Orbit data source: Space-Track

DMSP 5D-2 F13 DEB, 40577 is space debris in SSO originally from a launch on Fri, 24 Mar 1995 UTC launched from the Air Force Western Test Range (AFWTR). Debris objects in space refer to the collection of defunct objects orbiting the Earth. Examples of debris include non-operational satellites, rocket bodies, and fragments generated from explosions, collisions, or faulty payload assembly.

Loading next visibility...
Identifier
40577, 1995-015EL
Orbit
SSO
Country
Flag of USUS
Related business
Manufacturer
Unknown
Mission
Spacecraft
Bus & Motor
Unknown
Mass
Unknown
Launch date (UTC)
1995-03-24 (31 years ago)
Launch vehicle
Unknown
Launch site
Air Force Western Test Range (AFWTR)
Object type
Payload
Rocket body
Debris
Shape & HBR
Unknown shape, 0.1 m
Radar Cross Section
Small (<0.1 m²)

Expand to show TLE details & history
Last TLE update: 4 days ago

TLE from 4 days ago
0 DMSP 5D-2 F13 DEB
1 40577U 95015EL  25306.54958072  .00008093  00000-0  21885-2 0  9995
2 40577  98.6655 346.3629 0014153 134.1282 226.1077 14.47961256550732
Epoch: 2025-11-02T13:11Z
TLE epoch observation values (Epoch: 2025-11-02T13:11:23.774Z)
Latitude
0.00003°
Longitude
106.45013°
Altitude
742.255 km
Speed
7.48 km/s
True Right ascension
23h 05m 27s
True Declination
0° 00' 00"
Sunlit
Object was in full shadow at epoch
Visualization orbit readout
Latitude
Unknown
Longitude
Unknown
Altitude
Unknown
Speed
Unknown
Apparent Right ascension
Unknown
Apparent Declination
Unknown
Sunlit
N/A
Visualization observer readout
Local Sidereal Time
16:14:50
Azimuth
Unknown
Elevation
Unknown
Doppler factor
Unknown
Orbital elements
Apogee altitude
739.494 km
Perigee altitude
719.375 km
Semi-major axis
7,107.571 km
Eccentricity
0.00142
Inclination
98.6655°
RAAN
346.3629°
Arg. of periapsis
134.1282°
True anomaly
225.99097°
Mean anomaly
226.1077°
Eccentric anomaly
226.04932°
Mean motion
3.62211 °/min
Orbital period
99.39 mins
BSTAR
0.0021885

Documentation

Showing up to 5 results
|